Location: Gro�sch�nbrunn
(49.5760°N, 11.8868°E)
Time: 22:18:46
(UTC+00:00)

Ariane Rocket - Pass Details

Date: 18 September 2020
Orbit: 760 x 770 km, 98.7° (Epoch: 30 October)

Event Time Altitude Azimuth Distance (km) Brightness Sun altitude
Exits shadow 18:09:44 - 143° (SE) 2,881 5.5 -9.1°
Reaches altitude 10° 18:11:14 10° 139° (SE) 2,296 5.0 -9.3°
Maximum altitude 18:16:03 47° 67° (ENE) 1,017 3.3 -10.1°
Drops below altitude 10° 18:20:55 10° 355° (N) 2,317 5.8 -10.8°
Sets 18:23:18 0° 350° (N) 3,249 6.6 -11.2°
